EW9525 Weather Reports


time (UTC)temp
F
wind
direction
speed
knots
gust
knots
rain 1hr
in
rain 24hr
in
rain mn
in
humidity
%
barometer
mb
20260504044539 51 295 0.9 3.5 0.00 0.00 0.00 53 1006.4
20260504043039 58 58 2.6 4.3 0.00 0.00 0.00 42 1006.2
20260504041543 54 335 0.0 2.6 0.00 0.00 0.00 48 1006.4
20260504040041 57 318 0.9 2.6 0.00 0.00 0.00 44 1006.3
20260504034544 59 60 1.7 2.6 0.00 0.00 0.00 42 1006.2
20260504033036 60 76 2.6 6.1 0.00 0.00 0.00 42 1006.1
20260504031540 60 74 1.7 3.5 0.00 0.00 0.00 40 1006.2
20260504030036 60 32 0.0 1.7 0.00 0.00 0.00 40 1006.1
20260504024540 62 22 0.9 2.6 0.00 0.00 0.00 37 1006.0
20260504023035 63 22 0.9 1.7 0.00 0.00 0.00 37 1005.9
20260504021536 63 18 0.9 1.7 0.00 0.00 0.00 37 1005.7
20260504020038 64 34 1.7 2.6 0.00 0.00 0.00 36 1005.6
20260504014537 65 23 1.7 2.6 0.00 0.00 0.00 34 1005.7
20260504013042 67 16 2.6 4.3 0.00 0.00 0.00 32 1005.7
20260504011532 69 25 3.5 5.2 0.00 0.00 0.00 30 1005.7
20260504010030 71 15 4.3 7.0 0.00 0.00 0.00 28 1005.9
20260504004528 72 11 4.3 7.8 0.00 0.00 0.00 26 1006.1
20260504003026 74 359 5.2 7.8 0.00 0.00 0.00 24 1006.3
20260504001534 75 23 5.2 9.6 0.00 0.00 0.00 24 1006.2
20260504000025 76 9 7.0 10.4 0.00 0.00 0.00 22 1006.5
20260503234524 75 13 7.0 10.4 0.00 0.00 0.00 23 1006.5
20260503233023 75 8 7.0 10.4 0.00 0.00 0.00 22 1006.6
20260503231525 76 30 7.0 9.6 0.00 0.00 0.00 22 1006.7
20260503230035 76 335 5.2 11.3 0.00 0.00 0.00 22 1006.9
20260503224521 76 35 6.1 9.6 0.00 0.00 0.00 22 1007.0
20260503223019 77 1 5.2 10.4 0.00 0.00 0.00 22 1007.2
20260503221517 76 321 4.3 9.6 0.00 0.00 0.00 23 1007.3
20260503220016 77 42 5.2 10.4 0.00 0.00 0.00 23 1007.5
20260503214534 77 47 6.1 17.4 0.00 0.00 0.00 24 1007.7
20260503213014 76 43 9.6 13.9 0.00 0.00 0.00 22 1007.6
20260503211511 76 32 7.8 13.9 0.00 0.00 0.00 24 1007.9
20260503210010 76 37 7.8 13.0 0.00 0.00 0.00 23 1008.1
20260503204508 75 36 6.1 14.8 0.00 0.00 0.00 25 1008.4
20260503203011 77 69 7.0 13.0 0.00 0.00 0.00 24 1008.6
20260503201504 76 51 7.0 13.9 0.00 0.00 0.00 21 1009.0
20260503200003 77 64 8.7 15.6 0.00 0.00 0.00 22 1009.3
20260503194505 78 31 10.4 15.6 0.00 0.00 0.00 21 1009.4
20260503193118 76 18 11.3 15.6 0.00 0.00 0.00 23 1009.5
20260503191618 76 41 12.2 15.6 0.00 0.00 0.00 24 1009.5
20260503190059 76 46 9.6 16.5 0.00 0.00 0.00 26 1009.9
20260503184553 74 14 7.8 15.6 0.00 0.00 0.00 24 1010.2
20260503183050 74 53 11.3 20.0 0.00 0.00 0.00 25 1010.7
20260503181550 74 44 12.2 16.5 0.00 0.00 0.00 25 1010.9
20260503180055 73 56 11.3 15.6 0.00 0.00 0.00 26 1011.2
20260503174551 73 8 12.2 17.4 0.00 0.00 0.00 26 1011.4
20260503173041 72 11 14.8 20.0 0.00 0.00 0.00 26 1011.7
20260503171539 71 13 14.8 20.0 0.00 0.00 0.00 26 1011.9
20260503081539 45 193 4.3 7.8 0.00 0.00 0.00 56 1012.4
20260503071529 46 174 4.3 7.0 0.00 0.00 0.00 53 1012.6
20260503054516 46 144 1.7 3.5 0.00 0.00 0.00 54 1013.0
20260503053012 48 190 1.7 3.5 0.00 0.00 0.00 50 1013.0